Time,TemperatureF,DewpointF,PressureIn,WindDirection,WindDirectionDegrees,WindSpeedMPH,WindSpeedGustMPH,Humidity,HourlyPrecipIn,Conditions,Clouds,dailyrainin,SoftwareType,DateUTC
2013-12-08 00:06:00,2.6,-1.0,30.17,ENE,78,0.0,0.0,84,0.00,,,0.00,weatherlink.com 1.10,2013-12-08 07:06:00,
2013-12-08 00:21:00,2.8,-1.0,30.17,ENE,78,0.0,0.0,84,0.00,,,0.00,weatherlink.com 1.10,2013-12-08 07:21:00,
2013-12-08 00:36:00,3.3,-1.0,30.16,ENE,78,0.0,0.0,84,0.00,,,0.00,weatherlink.com 1.10,2013-12-08 07:36:00,
2013-12-08 00:51:00,3.7,0.0,30.15,SSE,164,0.0,1.0,83,0.00,,,0.00,weatherlink.com 1.10,2013-12-08 07:51:00,
2013-12-08 01:06:00,3.8,0.0,30.14,SSE,163,0.0,1.0,83,0.00,,,0.00,weatherlink.com 1.10,2013-12-08 08:06:00,
2013-12-08 01:21:00,4.0,0.0,30.14,SSW,197,0.0,1.0,83,0.00,,,0.00,weatherlink.com 1.10,2013-12-08 08:21:00,
2013-12-08 01:37:00,4.2,0.0,30.14,South,191,0.0,0.0,82,0.00,,,0.00,weatherlink.com 1.10,2013-12-08 08:37:00,
2013-12-08 01:52:00,4.3,0.0,30.12,South,191,0.0,0.0,82,0.00,,,0.00,weatherlink.com 1.10,2013-12-08 08:52:00,
2013-12-08 02:07:00,4.4,0.0,30.12,South,191,0.0,1.0,81,0.00,,,0.00,weatherlink.com 1.10,2013-12-08 09:07:00,
2013-12-08 02:22:00,4.3,0.0,30.11,South,191,0.0,0.0,82,0.00,,,0.00,weatherlink.com 1.10,2013-12-08 09:22:00,
2013-12-08 02:37:00,4.2,0.0,30.11,South,191,0.0,0.0,82,0.00,,,0.00,weatherlink.com 1.10,2013-12-08 09:37:00,
2013-12-08 02:52:00,4.1,0.0,30.10,South,191,0.0,0.0,82,0.00,,,0.00,weatherlink.com 1.10,2013-12-08 09:52:00,
2013-12-08 03:07:00,4.1,0.0,30.11,South,191,0.0,0.0,83,0.00,,,0.00,weatherlink.com 1.10,2013-12-08 10:07:00,
2013-12-08 03:22:00,4.1,0.0,30.11,South,191,0.0,0.0,83,0.00,,,0.00,weatherlink.com 1.10,2013-12-08 10:22:00,
2013-12-08 03:37:00,4.2,0.0,30.11,South,190,0.0,0.0,83,0.00,,,0.00,weatherlink.com 1.10,2013-12-08 10:37:00,
2013-12-08 03:52:00,4.4,0.0,30.11,South,190,0.0,0.0,83,0.00,,,0.00,weatherlink.com 1.10,2013-12-08 10:52:00,
2013-12-08 04:07:00,4.2,0.0,30.11,East,90,0.0,1.0,82,0.00,,,0.00,weatherlink.com 1.10,2013-12-08 11:07:00,
2013-12-08 04:22:00,4.2,0.0,30.11,East,84,0.0,1.0,82,0.00,,,0.00,weatherlink.com 1.10,2013-12-08 11:22:00,
2013-12-08 04:37:00,4.3,0.0,30.10,SE,131,0.0,0.0,82,0.00,,,0.00,weatherlink.com 1.10,2013-12-08 11:37:00,
2013-12-08 04:52:00,4.4,0.0,30.09,SE,131,0.0,0.0,82,0.00,,,0.00,weatherlink.com 1.10,2013-12-08 11:52:00,
2013-12-08 05:08:00,4.8,1.0,30.09,SE,131,0.0,0.0,82,0.00,,,0.00,weatherlink.com 1.10,2013-12-08 12:08:00,
2013-12-08 05:23:00,5.0,0.0,30.09,SE,131,0.0,0.0,81,0.00,,,0.00,weatherlink.com 1.10,2013-12-08 12:23:00,
2013-12-08 05:38:00,5.0,0.0,30.10,SE,131,0.0,1.0,81,0.00,,,0.00,weatherlink.com 1.10,2013-12-08 12:38:00,
2013-12-08 05:53:00,5.1,1.0,30.09,NNW,348,1.0,1.0,81,0.00,,,0.00,weatherlink.com 1.10,2013-12-08 12:53:00,
2013-12-08 06:08:00,5.3,1.0,30.09,North,360,0.0,1.0,82,0.00,,,0.00,weatherlink.com 1.10,2013-12-08 13:08:00,
2013-12-08 06:23:00,5.5,1.0,30.10,NNW,347,0.0,1.0,81,0.00,,,0.00,weatherlink.com 1.10,2013-12-08 13:23:00,
2013-12-08 06:38:00,5.5,1.0,30.10,NNW,340,0.0,2.0,82,0.00,,,0.00,weatherlink.com 1.10,2013-12-08 13:38:00,
2013-12-08 06:53:00,5.5,1.0,30.09,NNW,345,0.0,2.0,82,0.00,,,0.00,weatherlink.com 1.10,2013-12-08 13:53:00,
2013-12-08 07:08:00,5.5,1.0,30.11,North,349,0.0,2.0,82,0.00,,,0.00,weatherlink.com 1.10,2013-12-08 14:08:00,
2013-12-08 07:23:00,5.7,2.0,30.11,North,6,0.0,1.0,83,0.00,,,0.00,weatherlink.com 1.10,2013-12-08 14:23:00,
2013-12-08 07:38:00,5.6,1.0,30.12,North,352,0.0,3.0,82,0.00,,,0.00,weatherlink.com 1.10,2013-12-08 14:38:00,
2013-12-08 07:53:00,5.7,1.0,30.11,East,92,0.0,1.0,82,0.00,,,0.00,weatherlink.com 1.10,2013-12-08 14:53:00,
2013-12-08 08:08:00,6.0,2.0,30.12,North,356,0.0,1.0,82,0.00,,,0.00,weatherlink.com 1.10,2013-12-08 15:08:00,
2013-12-08 08:23:00,6.2,2.0,30.13,North,352,0.0,1.0,82,0.00,,,0.00,weatherlink.com 1.10,2013-12-08 15:23:00,
2013-12-08 08:39:00,6.7,2.0,30.13,NNW,346,0.0,1.0,81,0.00,,,0.00,weatherlink.com 1.10,2013-12-08 15:39:00,
2013-12-08 08:54:00,7.4,2.0,30.14,SE,143,0.0,1.0,79,0.00,,,0.00,weatherlink.com 1.10,2013-12-08 15:54:00,
2013-12-08 09:09:00,8.4,3.0,30.15,SSE,159,0.0,1.0,78,0.00,,,0.00,weatherlink.com 1.10,2013-12-08 16:09:00,
2013-12-08 09:24:00,9.2,3.0,30.15,South,179,0.0,1.0,76,0.00,,,0.00,weatherlink.com 1.10,2013-12-08 16:24:00,
2013-12-08 09:39:00,10.1,4.0,30.15,South,184,0.0,1.0,75,0.00,,,0.00,weatherlink.com 1.10,2013-12-08 16:39:00,
2013-12-08 09:54:00,10.6,4.0,30.16,SW,232,0.0,2.0,75,0.00,,,0.00,weatherlink.com 1.10,2013-12-08 16:54:00,
2013-12-08 10:09:00,11.2,5.0,30.16,South,179,1.0,2.0,75,0.00,,,0.00,weatherlink.com 1.10,2013-12-08 17:09:00,
2013-12-08 10:24:00,12.0,5.0,30.16,SSW,210,1.0,3.0,73,0.00,,,0.00,weatherlink.com 1.10,2013-12-08 17:24:00,
2013-12-08 10:39:00,13.3,6.0,30.16,SW,225,0.0,3.0,71,0.00,,,0.00,weatherlink.com 1.10,2013-12-08 17:39:00,
2013-12-08 10:54:00,13.9,6.0,30.17,SSW,203,1.0,2.0,71,0.00,,,0.00,weatherlink.com 1.10,2013-12-08 17:54:00,
2013-12-08 11:09:00,15.0,7.0,30.17,SE,139,0.0,3.0,69,0.00,,,0.00,weatherlink.com 1.10,2013-12-08 18:09:00,
2013-12-08 11:24:00,16.7,7.0,30.17,SW,232,1.0,2.0,65,0.00,,,0.00,weatherlink.com 1.10,2013-12-08 18:24:00,
2013-12-08 11:39:00,17.8,7.0,30.17,SW,231,0.0,2.0,63,0.00,,,0.00,weatherlink.com 1.10,2013-12-08 18:39:00,
2013-12-08 11:55:00,16.8,7.0,30.16,NNE,15,2.0,4.0,64,0.00,,,0.00,weatherlink.com 1.10,2013-12-08 18:55:00,
2013-12-08 12:10:00,16.4,7.0,30.16,NE,49,0.0,2.0,66,0.00,,,0.00,weatherlink.com 1.10,2013-12-08 19:10:00,
2013-12-08 12:25:00,16.9,8.0,30.17,North,7,3.0,3.0,68,0.00,,,0.00,weatherlink.com 1.10,2013-12-08 19:25:00,
2013-12-08 12:40:00,16.6,8.0,30.17,NNW,340,0.0,4.0,68,0.00,,,0.00,weatherlink.com 1.10,2013-12-08 19:40:00,
2013-12-08 12:55:00,16.3,8.0,30.17,North,11,2.0,2.0,69,0.00,,,0.00,weatherlink.com 1.10,2013-12-08 19:55:00,
2013-12-08 13:10:00,16.7,8.0,30.17,NNW,348,0.0,1.0,68,0.00,,,0.00,weatherlink.com 1.10,2013-12-08 20:10:00,
2013-12-08 13:25:00,18.5,9.0,30.16,East,81,0.0,2.0,67,0.00,,,0.00,weatherlink.com 1.10,2013-12-08 20:25:00,
2013-12-08 13:40:00,18.4,9.0,30.16,ENE,78,0.0,2.0,66,0.00,,,0.00,weatherlink.com 1.10,2013-12-08 20:40:00,
2013-12-08 13:55:00,19.1,9.0,30.17,ENE,77,1.0,1.0,66,0.00,,,0.00,weatherlink.com 1.10,2013-12-08 20:55:00,
2013-12-08 14:10:00,19.7,9.0,30.17,North,11,0.0,2.0,64,0.00,,,0.00,weatherlink.com 1.10,2013-12-08 21:10:00,
2013-12-08 14:25:00,20.1,10.0,30.17,ENE,75,0.0,1.0,64,0.00,,,0.00,weatherlink.com 1.10,2013-12-08 21:25:00,
2013-12-08 14:40:00,19.7,9.0,30.18,East,86,0.0,1.0,64,0.00,,,0.00,weatherlink.com 1.10,2013-12-08 21:40:00,
2013-12-08 14:55:00,19.7,9.0,30.17,NE,40,1.0,1.0,64,0.00,,,0.00,weatherlink.com 1.10,2013-12-08 21:55:00,
2013-12-08 15:11:00,18.5,8.0,30.17,East,82,1.0,1.0,64,0.00,,,0.00,weatherlink.com 1.10,2013-12-08 22:11:00,
2013-12-08 15:26:00,18.2,8.0,30.18,East,97,0.0,2.0,65,0.00,,,0.00,weatherlink.com 1.10,2013-12-08 22:26:00,
2013-12-08 15:41:00,17.8,7.0,30.19,SE,139,0.0,2.0,64,0.00,,,0.00,weatherlink.com 1.10,2013-12-08 22:41:00,
2013-12-08 15:56:00,17.0,7.0,30.19,East,84,1.0,3.0,64,0.00,,,0.00,weatherlink.com 1.10,2013-12-08 22:56:00,
2013-12-08 16:11:00,15.9,7.0,30.20,ESE,113,1.0,4.0,69,0.00,,,0.00,weatherlink.com 1.10,2013-12-08 23:11:00,
2013-12-08 16:26:00,14.5,7.0,30.20,East,89,0.0,2.0,71,0.00,,,0.00,weatherlink.com 1.10,2013-12-08 23:26:00,
2013-12-08 16:41:00,13.6,6.0,30.20,ENE,60,0.0,2.0,72,0.00,,,0.00,weatherlink.com 1.10,2013-12-08 23:41:00,
2013-12-08 16:56:00,12.7,6.0,30.22,East,98,0.0,1.0,74,0.00,,,0.00,weatherlink.com 1.10,2013-12-08 23:56:00,
2013-12-08 17:11:00,12.2,5.0,30.23,ESE,110,2.0,4.0,74,0.00,,,0.00,weatherlink.com 1.10,2013-12-09 00:11:00,
2013-12-08 17:26:00,11.4,5.0,30.23,ENE,77,3.0,3.0,75,0.00,,,0.00,weatherlink.com 1.10,2013-12-09 00:26:00,
2013-12-08 17:41:00,10.8,5.0,30.24,East,79,1.0,2.0,76,0.00,,,0.00,weatherlink.com 1.10,2013-12-09 00:41:00,
2013-12-08 17:56:00,10.4,4.0,30.25,ENE,77,0.0,1.0,76,0.00,,,0.00,weatherlink.com 1.10,2013-12-09 00:56:00,
2013-12-08 18:11:00,10.2,4.0,30.26,North,352,0.0,3.0,77,0.00,,,0.00,weatherlink.com 1.10,2013-12-09 01:11:00,
2013-12-08 18:26:00,9.7,4.0,30.27,ENE,78,1.0,2.0,77,0.00,,,0.00,weatherlink.com 1.10,2013-12-09 01:26:00,
2013-12-08 18:42:00,9.6,4.0,30.27,East,96,0.0,2.0,77,0.00,,,0.00,weatherlink.com 1.10,2013-12-09 01:42:00,
2013-12-08 18:57:00,9.2,3.0,30.28,ENE,75,1.0,2.0,75,0.00,,,0.00,weatherlink.com 1.10,2013-12-09 01:57:00,
2013-12-08 19:12:00,8.9,3.0,30.29,ENE,74,0.0,3.0,75,0.00,,,0.00,weatherlink.com 1.10,2013-12-09 02:12:00,
2013-12-08 19:27:00,8.5,2.0,30.30,East,91,0.0,1.0,75,0.00,,,0.00,weatherlink.com 1.10,2013-12-09 02:27:00,
2013-12-08 19:42:00,8.2,2.0,30.31,East,83,0.0,2.0,75,0.00,,,0.00,weatherlink.com 1.10,2013-12-09 02:42:00,
2013-12-08 19:57:00,7.7,2.0,30.31,NNW,347,0.0,1.0,76,0.00,,,0.00,weatherlink.com 1.10,2013-12-09 02:57:00,
2013-12-08 20:12:00,7.8,2.0,30.31,SSW,203,0.0,2.0,78,0.00,,,0.00,weatherlink.com 1.10,2013-12-09 03:12:00,
2013-12-08 20:27:00,8.0,2.0,30.32,East,86,0.0,1.0,77,0.00,,,0.00,weatherlink.com 1.10,2013-12-09 03:27:00,
2013-12-08 20:42:00,7.9,2.0,30.31,East,98,0.0,1.0,76,0.00,,,0.00,weatherlink.com 1.10,2013-12-09 03:42:00,
2013-12-08 20:57:00,7.5,1.0,30.31,SE,127,0.0,1.0,76,0.00,,,0.00,weatherlink.com 1.10,2013-12-09 03:57:00,
2013-12-08 21:12:00,6.9,1.0,30.32,East,92,0.0,0.0,77,0.00,,,0.00,weatherlink.com 1.10,2013-12-09 04:12:00,
2013-12-08 21:27:00,6.2,1.0,30.32,East,91,0.0,0.0,78,0.00,,,0.00,weatherlink.com 1.10,2013-12-09 04:27:00,
2013-12-08 21:42:00,5.7,1.0,30.32,East,92,0.0,0.0,80,0.00,,,0.00,weatherlink.com 1.10,2013-12-09 04:42:00,
2013-12-08 21:57:00,6.4,2.0,30.32,East,90,0.0,0.0,80,0.00,,,0.00,weatherlink.com 1.10,2013-12-09 04:57:00,
2013-12-08 22:12:00,7.0,2.0,30.32,South,169,0.0,1.0,79,0.00,,,0.00,weatherlink.com 1.10,2013-12-09 05:12:00,
2013-12-08 22:27:00,7.0,2.0,30.32,South,169,0.0,0.0,78,0.00,,,0.00,weatherlink.com 1.10,2013-12-09 05:27:00,
2013-12-08 22:43:00,7.0,1.0,30.32,South,169,0.0,1.0,77,0.00,,,0.00,weatherlink.com 1.10,2013-12-09 05:43:00,
2013-12-08 22:58:00,6.9,1.0,30.32,SSE,152,0.0,1.0,77,0.00,,,0.00,weatherlink.com 1.10,2013-12-09 05:58:00,
2013-12-08 23:13:00,6.6,1.0,30.33,SSE,152,0.0,0.0,78,0.00,,,0.00,weatherlink.com 1.10,2013-12-09 06:13:00,
2013-12-08 23:43:00,6.0,1.0,30.33,SSE,152,0.0,0.0,79,0.00,,,0.00,weatherlink.com 1.10,2013-12-09 06:43:00,
2013-12-08 23:58:00,6.1,1.0,30.34,East,87,1.0,1.0,79,0.00,,,0.00,weatherlink.com 1.10,2013-12-09 06:58:00,